RH
94 94 95 97 96 97 97 96 98 97 98 99 99 100 99 100 99 98 99 98 99 100 99 99 98 98 97 95 96 93 90 84 68 60 52 35 31 32 28 30 28 23 17 16 21 20 18 19 20 19 16 15 13 8 7 5 6 6 7 10 10 10 8 6 4 3 3 2 4 4 4 5 4 7 8 8 10 11 14 17 25 32 32 30 31 39 49 55
96 96 95 94 94 94 93 93 97 98 98 99 100 100 99 100 99 99 99 99 100 98 98 99 98 98 96 95 95 89 88 81 67 56 38 21 24 31 27 28 31 22 15 19 21 18 16 16 17 17 17 15 11 8 7 6 6 7 8 9 10 9 7 5 3 3 3 4 4 4 5 4 4 8 10 12 12 12 17 23 28 39 43 38 38 48 54 57
98 99 98 97 96 94 92 93 98 100 99 100 99 99 100 99 99 100 99 100 100 98 99 98 99 100 97 99 91 81 84 75 58 46 30 20 24 27 24 23 24 16 13 19 18 17 16 13 15 16 17 15 11 8 6 6 7 7 8 10 9 6 5 4 3 3 3 4 5 5 5 4 4 6 9 14 15 13 16 26 41 50 50 50 50 54 59 64
96 98 99 99 98 96 96 97 99 99 98 99 99 99 100 99 100 99 99 100 99 100 100 99 101 99 99 99 83 74 79 64 42 32 25 22 20 22 25 22 16 10 11 17 16 15 15 13 14 14 15 14 10 8 6 6 7 7 8 9 8 5 5 4 3 3 3 4 5 5 5 4 4 3 8 13 18 23 19 25 48 54 47 52 57 55 62 71
96 96 97 97 97 96 97 98 97 98 98 98 97 98 98 99 100 99 100 100 99 100 99 100 100 98 101 93 72 72 72 50 31 25 21 20 18 20 22 20 14 9 12 16 15 13 14 14 13 13 13 13 10 7 6 5 5 8 8 7 7 5 4 3 3 4 3 4 4 5 5 3 4 4 6 10 19 31 26 23 39 45 41 47 55 58 66 75
98 95 95 95 95 95 94 95 96 96 97 97 97 97 97 98 98 99 100 99 100 100 99 100 99 98 96 79 67 72 60 32 22 23 19 18 20 17 14 15 10 10 16 15 14 13 12 13 13 13 12 12 10 7 6 4 4 8 8 6 5 5 5 3 3 4 4 5 5 5 4 3 4 4 5 7 14 26 27 23 28 33 37 45 54 64 75 79
97 95 95 95 94 95 95 94 95 96 96 97 97 96 96 96 97 99 99 100 100 99 100 99 98 98 88 70 64 66 55 34 23 23 20 17 19 12 9 11 7 13 20 14 15 15 11 12 12 12 11 11 10 7 5 4 5 7 8 7 6 5 4 3 4 4 4 5 5 4 3 4 5 4 5 5 11 25 28 22 23 29 34 46 58 70 79 80
96 96 95 95 95 97 98 96 96 96 95 96 95 96 98 98 99 98 98 98 98 98 99 99 99 93 84 74 59 48 44 36 26 21 18 18 18 11 9 11 9 16 20 15 15 14 10 10 10 10 10 10 8 6 5 4 5 6 7 6 6 5 4 4 4 4 4 5 4 3 3 4 4 4 4 3 11 28 31 22 23 29 33 45 63 73 78 81
95 97 98 98 98 99 99 98 97 97 96 95 94 95 96 99 99 98 99 97 95 98 96 98 98 81 78 77 58 42 32 26 27 20 14 19 18 9 9 13 13 16 18 18 15 12 10 9 9 8 9 9 7 6 5 5 5 5 6 6 6 5 4 4 4 5 5 4 4 4 4 4 4 4 4 3 8 23 29 25 26 29 33 44 62 71 73 80
95 96 97 98 99 100 99 98 97 97 95 92 92 91 90 94 97 94 97 98 96 99 97 98 92 76 73 67 52 43 25 19 30 26 18 20 18 11 11 14 13 14 16 17 14 10 8 7 7 6 7 7 6 6 4 5 5 4 5 5 5 5 5 4 4 5 5 5 4 4 4 4 4 4 5 4 4 11 16 20 26 28 33 42 54 63 67 74
93 96 96 96 98 99 98 98 97 97 96 92 89 88 86 84 87 91 91 92 90 90 96 95 86 80 73 55 45 38 17 14 24 26 25 21 19 15 14 15 12 13 15 14 12 9 7 6 5 5 6 6 5 6 4 4 4 4 5 5 5 5 5 5 4 5 5 5 4 3 4 3 4 4 4 4 3 6 9 14 25 28 30 38 45 55 64 67
95 97 97 95 96 97 97 98 98 98 97 95 91 87 83 68 65 78 84 86 80 79 89 89 82 82 71 51 41 30 15 15 15 21 27 20 19 17 14 16 13 13 14 12 10 7 7 5 5 6 6 6 6 6 5 5 4 4 5 5 6 6 6 5 3 5 5 5 3 3 5 4 4 4 4 4 3 6 9 9 19 29 32 34 37 47 59 63
97 98 98 96 95 97 97 98 98 98 96 95 90 79 69 50 40 53 73 84 74 70 76 76 81 83 70 48 31 20 16 16 13 18 25 21 18 16 15 16 14 13 13 11 10 7 7 6 6 7 6 6 7 6 5 5 5 5 5 6 8 7 6 5 4 4 5 5 3 3 6 5 4 4 3 4 3 5 10 7 11 28 35 32 35 45 58 63
95 97 99 96 94 96 98 98 96 97 97 92 79 58 44 34 27 33 59 81 70 62 62 67 84 83 69 50 26 17 16 14 13 15 21 21 17 15 15 15 13 13 11 10 10 8 8 7 7 7 7 7 7 6 5 5 6 5 6 6 8 8 7 5 4 4 5 5 3 4 7 6 4 4 3 3 3 5 9 8 7 22 31 30 35 46 56 61
94 95 98 96 94 96 97 99 97 95 89 77 57 37 30 30 31 35 57 78 70 64 68 74 84 75 61 48 28 21 17 14 14 12 16 20 18 15 14 14 13 12 11 11 10 10 9 7 8 8 8 7 7 8 8 9 7 5 8 9 7 8 7 5 4 4 5 5 3 4 7 6 4 3 3 2 4 6 9 9 6 15 26 29 36 46 54 59
96 95 96 97 95 95 97 97 97 90 71 52 36 28 36 42 47 52 60 67 59 64 78 77 71 64 55 39 25 24 21 17 14 11 13 17 18 15 13 14 13 12 11 11 11 11 10 9 9 8 8 7 7 9 10 12 11 7 8 10 9 7 7 5 4 3 4 5 3 4 5 5 4 3 3 2 3 6 9 10 6 14 28 32 39 49 55 59
99 97 97 98 96 96 97 94 91 82 54 29 21 29 52 64 65 65 65 66 66 73 79 65 53 55 52 35 24 23 19 18 15 11 11 14 17 15 13 13 11 12 11 10 10 10 10 11 10 9 8 8 9 9 13 16 15 10 8 10 9 6 6 5 4 3 3 4 3 4 4 4 5 3 3 2 3 6 8 10 6 15 36 40 43 52 56 62
99 98 98 96 92 89 86 81 75 64 42 18 16 38 65 76 78 74 70 73 79 80 74 59 50 48 42 34 28 20 13 15 14 10 10 13 16 14 13 12 11 11 10 10 10 9 10 10 9 10 10 10 10 11 14 15 13 11 10 10 9 6 6 5 4 3 2 5 4 4 5 4 5 3 3 2 2 6 8 11 7 14 40 45 43 55 59 63
99 98 98 90 81 72 65 63 54 47 36 12 11 43 72 83 88 84 73 66 67 66 56 53 52 40 28 25 22 15 11 13 12 10 11 13 15 14 12 12 10 10 11 12 11 10 10 11 11 12 12 12 11 11 12 11 9 9 8 8 9 7 6 4 4 3 2 5 4 4 5 5 5 3 4 4 4 8 8 11 8 10 33 43 46 61 62 63
94 92 90 83 69 54 47 47 40 42 43 27 30 52 62 63 64 66 65 57 51 45 32 31 37 31 22 18 15 12 11 13 13 12 12 14 15 13 13 11 10 11 12 12 12 10 9 12 14 13 12 12 12 12 11 10 8 7 7 7 7 7 6 4 3 3 2 4 5 5 5 5 5 3 5 7 7 10 8 10 11 8 22 40 48 56 55 57
85 85 80 69 57 45 37 35 36 41 44 48 59 54 34 26 28 33 38 36 33 31 24 19 22 24 21 16 13 11 12 14 14 12 13 15 14 14 13 10 11 13 12 11 11 9 9 13 14 11 12 11 11 12 12 12 10 8 9 10 9 7 6 4 3 3 3 5 6 5 5 4 4 4 4 7 9 10 10 11 12 8 14 32 45 51 51 50
82 88 81 66 50 37 27 26 32 35 38 60 72 49 22 15 18 19 20 20 19 18 20 18 16 18 16 14 12 11 12 15 14 12 12 14 14 14 12 9 12 13 11 10 10 11 12 14 13 10 11 11 11 12 12 13 12 11 11 12 12 7 5 5 4 3 3 6 7 5 6 5 5 5 3 5 7 10 12 10 12 11 11 28 51 62 63 58
87 89 84 73 49 31 25 22 24 28 38 59 61 38 24 19 15 15 18 23 21 14 13 13 13 15 14 14 12 11 14 15 15 12 11 15 14 11 10 9 11 10 10 10 11 14 15 14 12 10 10 12 13 12 12 13 13 13 13 14 13 8 6 7 5 4 4 6 8 6 7 6 6 5 4 5 5 8 11 8 12 10 9 34 58 62 62 61
91 90 89 81 57 36 24 14 17 31 43 50 44 28 21 19 15 16 21 26 26 19 14 11 10 12 12 13 12 11 14 15 14 12 11 15 13 9 9 9 9 9 9 8 9 13 14 12 11 9 10 12 13 14 13 15 15 14 16 15 13 9 6 7 7 7 6 9 11 9 10 10 7 6 4 5 5 7 9 10 13 8 14 46 62 57 57 56
95 95 94 89 74 43 20 24 35 41 42 44 41 30 22 19 17 20 28 34 30 21 16 13 10 10 10 11 11 11 13 14 12 11 11 14 12 9 9 7 8 9 8 7 9 12 13 12 10 10 10 9 11 16 17 18 17 15 16 15 13 10 7 6 8 9 10 13 12 10 16 14 8 8 5 6 6 6 10 12 13 9 22 50 59 56 55 51
95 97 95 95 89 50 23 38 46 33 24 24 24 22 21 20 21 26 37 46 37 21 16 15 11 10 11 10 11 11 15 16 11 9 12 13 11 9 8 8 8 8 7 6 8 11 11 10 9 9 10 9 12 15 16 17 17 15 12 11 10 9 9 8 8 10 12 15 12 11 18 17 11 10 7 8 7 7 12 14 15 10 20 48 59 61 58 51
98 99 95 97 96 74 52 43 32 18 15 16 17 20 19 19 24 31 44 51 35 17 16 16 12 13 13 11 11 14 19 18 10 8 11 13 12 9 9 9 8 8 7 8 12 13 11 11 9 10 11 12 14 15 13 13 15 14 10 8 9 7 9 10 9 10 12 14 14 12 14 16 14 11 9 10 7 9 11 12 17 10 18 52 68 71 67 52
97 98 97 95 87 81 80 67 45 27 16 15 20 22 19 19 27 36 51 53 28 12 16 17 16 16 14 12 12 16 16 13 12 11 9 12 13 10 11 10 9 9 7 10 16 14 11 12 11 11 13 14 14 12 9 10 13 12 8 8 8 7 8 9 9 11 11 15 18 15 14 16 16 11 9 9 8 12 11 12 18 12 24 58 65 63 60 45
85 93 96 93 67 50 68 80 68 42 22 19 21 23 21 23 29 38 55 54 26 11 15 18 19 18 15 16 16 15 12 10 13 10 9 13 14 11 11 10 8 9 7 10 14 13 10 10 10 12 13 13 12 9 7 9 12 10 8 8 7 7 7 8 10 11 13 21 22 18 16 18 18 12 8 10 12 13 13 15 18 16 32 56 57 51 45 38
69 78 81 89 68 44 56 74 67 46 33 30 27 29 28 27 35 49 59 47 20 10 13 16 19 17 15 19 19 16 13 12 11 10 12 15 13 11 10 8 8 9 9 9 11 11 9 7 8 10 11 10 8 8 7 7 9 9 8 8 9 8 6 8 11 11 17 25 21 16 16 20 22 17 9 11 15 15 16 17 17 24 41 52 53 49 38 36
54 57 65 85 81 62 55 52 48 42 38 39 37 33 29 28 38 54 55 32 12 10 11 14 16 14 15 20 20 17 13 12 11 13 16 15 14 13 12 10 9 11 12 12 11 10 9 9 9 8 8 8 7 8 8 7 7 8 8 10 14 12 8 10 10 12 21 24 18 13 14 21 25 22 15 14 16 14 14 17 17 28 43 48 50 48 41 38
44 46 55 68 71 66 50 32 32 40 41 41 41 33 27 32 41 46 40 21 12 13 10 12 13 12 15 18 18 15 13 13 13 14 17 17 17 15 13 13 12 14 17 15 13 12 10 9 9 9 8 7 8 9 10 8 7 9 9 12 19 18 14 15 13 15 21 20 16 12 13 22 27 24 22 21 22 18 15 19 20 28 42 45 44 46 48 44
38 42 46 48 55 54 36 29 38 46 48 44 40 33 30 41 45 36 28 18 15 12 8 12 12 12 16 17 17 15 13 13 13 15 16 16 18 15 12 11 9 14 17 16 15 14 13 11 8 10 10 7 9 11 12 12 10 11 11 13 21 21 21 24 20 19 22 18 14 12 16 27 30 27 24 22 24 25 22 24 24 26 37 43 40 45 56 51
33 40 42 45 60 53 35 47 55 51 54 46 34 33 40 51 43 28 24 19 14 10 9 12 11 13 16 15 16 15 14 14 12 15 16 16 18 16 13 11 8 11 13 15 17 15 16 15 10 10 11 8 9 10 12 11 9 11 9 10 18 21 22 26 23 22 24 18 15 16 19 28 31 28 25 23 23 24 25 28 28 27 30 35 37 47 64 60
30 44 45 44 65 63 48 57 57 53 59 45 30 32 42 47 37 25 24 17 12 11 9 8 8 13 16 14 15 13 14 17 14 14 18 16 17 16 12 11 9 9 13 16 17 15 16 15 10 9 9 7 9 9 8 9 11 11 7 9 19 20 18 22 25 25 23 19 18 21 23 26 30 28 23 21 22 23 26 26 26 31 32 31 33 40 54 55
31 53 62 58 65 64 55 54 51 55 57 41 32 32 31 30 24 19 17 12 11 11 8 8 8 11 15 15 15 13 13 17 16 18 21 16 14 14 12 11 9 8 11 15 16 15 17 15 10 8 8 7 8 8 6 9 15 15 10 10 13 13 14 24 29 25 23 23 23 27 32 30 29 30 24 19 22 24 24 24 28 39 43 41 39 36 37 40
43 54 60 54 47 45 45 44 44 50 49 40 37 32 22 17 15 13 12 9 9 7 8 13 12 10 13 15 15 13 13 16 16 19 24 23 17 13 10 9 10 9 8 11 14 15 17 20 15 9 10 8 6 8 7 6 11 15 14 11 9 10 14 23 30 28 26 26 22 24 35 36 30 30 27 23 26 25 24 33 41 46 49 49 45 39 38 45
59 49 43 39 35 37 40 39 39 42 43 40 38 32 21 13 10 9 9 9 10 8 10 15 15 11 11 13 13 12 13 20 24 23 28 32 26 21 18 12 8 9 7 8 12 13 16 22 20 13 11 9 6 8 10 7 7 10 12 11 14 21 21 19 25 28 28 31 25 16 25 36 35 30 27 25 30 31 34 48 55 50 52 57 55 52 55 60
63 50 42 37 35 41 47 47 43 41 43 40 33 28 20 13 11 8 8 9 9 10 11 13 15 12 10 10 10 11 12 20 33 36 38 40 36 31 27 20 16 11 7 8 11 14 17 21 24 19 11 9 9 10 12 12 8 8 10 10 14 21 22 20 23 24 24 33 31 15 20 42 46 36 31 31 38 41 42 51 57 53 54 61 69 74 72 69
56 50 47 40 38 47 55 55 49 44 47 41 28 21 14 10 10 6 6 8 8 11 12 13 16 13 11 10 7 10 12 16 28 36 40 43 43 40 32 24 21 16 11 11 9 11 19 25 28 22 11 10 14 12 12 13 11 10 12 13 14 18 21 22 24 19 17 26 29 21 30 52 53 41 38 44 54 57 52 58 66 62 60 66 76 82 79 73
46 47 44 37 39 47 53 55 50 43 42 36 25 18 11 9 9 7 7 7 6 9 11 13 17 14 12 12 9 10 11 14 21 27 36 42 45 48 42 27 19 17 21 23 15 13 20 26 30 26 18 16 16 11 8 9 10 10 11 13 13 16 22 25 26 23 17 20 26 32 48 60 52 41 43 54 67 68 60 63 73 74 73 79 83 83 82 76
46 47 42 37 40 42 44 48 45 40 41 36 25 18 13 9 8 6 7 9 10 12 11 13 15 13 14 14 12 12 12 15 19 24 41 54 51 43 35 26 19 16 24 32 26 23 25 26 26 24 21 20 17 14 12 10 9 8 9 11 10 13 17 21 26 27 21 18 21 34 55 63 52 40 42 53 66 71 65 60 63 68 70 73 77 81 82 73
45 38 34 38 40 37 42 47 43 40 42 35 25 21 16 12 12 10 9 11 13 15 15 16 15 14 14 14 14 15 14 16 19 22 34 46 43 31 23 24 21 16 30 47 39 27 28 30 31 34 36 31 23 17 13 9 9 10 10 10 11 14 14 14 19 22 23 23 22 31 51 60 50 40 40 47 54 62 67 61 56 60 60 56 57 61 65 63
39 31 27 34 33 32 43 51 49 46 41 34 32 32 26 19 15 14 14 14 14 16 17 17 17 14 10 10 13 15 13 15 19 22 25 28 28 26 22 23 22 19 31 48 40 26 28 33 35 45 52 47 38 31 24 22 21 20 18 14 11 12 15 18 18 19 24 24 18 30 52 57 47 41 44 51 57 60 63 60 56 59 59 54 50 50 53 56
43 33 24 25 26 29 39 44 44 44 42 43 45 40 36 32 24 16 16 16 14 16 17 17 17 15 12 11 12 11 11 15 16 17 26 34 32 26 21 23 28 25 23 30 28 23 32 38 36 40 45 48 52 47 40 37 33 28 25 22 17 11 13 21 22 21 27 24 21 37 57 57 46 43 49 61 70 72 69 64 60 57 56 55 53 53 53 54
39 29 22 22 24 28 33 35 37 43 46 54 54 41 35 38 31 20 18 17 17 17 19 19 18 17 16 17 18 15 11 13 15 12 23 36 34 25 22 23 26 28 31 32 26 24 32 37 37 39 42 49 54 48 39 37 34 32 31 32 31 22 15 19 22 24 28 29 37 50 58 59 53 50 59 72 79 82 79 74 70 62 57 56 56 54 54 54
32 27 26 29 31 32 38 39 41 45 48 55 57 47 42 42 34 29 27 20 15 18 20 19 19 20 21 22 24 23 16 14 15 10 16 28 30 26 24 20 20 32 41 34 21 24 32 32 35 40 39 40 42 41 40 39 35 35 36 35 35 35 34 29 24 27 30 33 47 55 56 61 59 55 65 75 75 78 79 74 69 61 55 54 54 52 53 53
25 27 28 33 39 43 49 50 47 47 48 54 58 56 59 56 41 37 38 26 19 22 24 24 22 18 18 19 20 23 22 20 20 21 27 34 34 30 26 22 23 32 37 26 17 23 30 29 33 38 34 29 29 33 38 40 36 34 37 36 33 43 59 56 39 32 34 41 51 55 57 65 63 61 70 71 66 68 68 62 58 53 49 49 49 50 52 52
24 29 28 30 35 41 49 49 46 48 49 53 56 57 63 62 45 32 31 34 38 33 27 36 36 22 17 20 25 35 41 41 43 46 47 46 42 37 39 42 37 29 25 23 24 28 31 32 31 33 36 30 25 28 32 33 34 34 36 36 32 38 57 70 69 59 49 51 55 55 63 73 70 67 71 67 60 59 58 54 53 50 46 44 45 47 48 49
29 30 34 35 28 26 37 41 41 46 48 49 52 52 52 53 49 41 31 34 47 39 28 40 42 31 32 34 34 43 48 47 51 51 45 44 44 40 42 48 47 37 27 26 36 41 39 39 34 31 36 33 26 28 29 28 33 37 38 37 33 37 45 56 77 84 70 63 65 65 71 74 66 62 65 62 57 55 53 53 52 50 47 44 44 43 43 44
31 26 32 41 30 20 28 33 33 41 47 48 50 48 44 40 42 48 39 28 35 36 30 35 37 37 44 42 35 37 36 33 38 38 31 33 36 33 31 31 36 44 42 41 57 62 47 39 38 36 40 38 30 30 29 27 32 36 39 39 36 43 47 43 58 78 76 71 73 75 77 71 59 58 61 58 55 55 53 51 49 47 44 42 42 42 41 40
36 32 32 41 34 20 22 25 27 35 41 45 45 42 43 40 33 40 45 35 30 31 29 30 35 39 43 40 34 32 29 27 28 26 24 24 22 20 22 21 20 32 46 55 70 79 66 48 41 41 44 40 30 27 27 31 38 42 46 46 39 40 46 42 47 58 63 66 68 64 63 59 53 55 61 59 55 54 52 48 47 46 43 43 46 47 47 46
Wind_Speed
13 13 13 13 13 12 12 12 12 11 12 12 12 13 12 12 12 12 13 13 13 14 14 15 15 16 15 16 17 16 18 19 19 16 18 19 14 13 14 13 11 10 10 11 12 14 16 16 17 17 14 10 8 8 11 11 8 8 6 8 8 8 10 10 12 8 6 6 5 6 5 3 8 3 4 5 8 9 2 5 10 14 9 9 7 12 20 21
13 13 13 13 13 12 13 13 12 11 11 12 12 12 12 13 13 12 13 13 13 13 14 15 15 15 15 16 16 16 17 19 20 20 25 24 16 14 15 16 15 12 12 14 16 17 16 14 16 16 11 8 8 9 11 9 9 8 6 8 8 10 12 12 13 8 3 6 6 5 1 5 6 3 2 4 10 10 6 5 11 13 10 10 11 16 19 20
13 14 13 13 13 12 13 13 12 12 12 12 12 12 12 12 12 12 13 13 14 13 14 15 14 15 15 15 15 14 16 19 17 17 21 18 17 21 18 16 16 13 16 18 17 18 17 15 16 14 11 9 8 10 11 9 9 9 8 8 9 13 14 16 15 7 4 8 6 2 1 6 2 1 3 3 8 10 10 6 10 10 8 10 13 16 17 18
14 14 14 13 13 13 13 13 13 13 13 12 12 12 12 12 12 13 13 13 14 14 14 14 14 15 15 15 14 13 15 16 8 3 4 5 12 18 19 17 14 14 19 20 17 17 17 16 15 13 11 9 9 11 11 10 9 8 9 9 11 14 14 17 12 7 6 4 6 4 0 5 2 2 4 3 6 6 6 9 14 11 8 9 11 13 14 15
13 13 14 14 14 14 14 14 14 13 13 12 12 12 12 12 12 13 13 13 13 14 14 14 15 15 15 15 12 12 12 6 2 6 6 5 8 11 15 16 14 14 19 20 18 17 17 16 14 13 10 9 10 11 11 13 11 8 11 14 15 16 14 14 8 6 7 2 4 6 6 6 1 2 5 6 7 1 3 7 17 15 11 10 10 11 11 11
13 13 13 13 14 14 14 14 14 14 13 13 12 12 12 12 12 12 13 13 13 13 13 14 14 14 14 14 11 11 8 3 2 5 8 5 4 6 10 13 13 14 17 18 17 16 15 15 13 11 9 10 12 12 11 14 13 9 11 14 16 18 17 15 9 4 4 4 5 8 11 8 5 6 7 9 7 9 3 2 10 14 14 12 11 11 10 9
13 14 14 14 14 13 14 14 14 14 14 13 13 12 12 12 12 11 12 13 13 13 13 13 14 14 14 14 12 9 8 10 8 5 9 4 4 5 8 10 13 14 15 17 16 15 13 15 14 11 10 10 12 14 14 14 14 12 12 13 16 18 17 15 11 3 2 6 9 10 12 6 6 10 5 8 4 18 11 5 8 11 14 14 12 12 9 8
13 14 14 14 14 14 14 14 13 13 13 13 14 13 13 12 12 11 11 12 12 12 12 13 13 12 12 13 10 7 10 12 6 10 9 5 5 6 8 10 13 15 15 17 16 14 13 15 15 12 11 11 11 13 14 14 14 15 14 14 14 15 16 15 13 7 3 7 8 10 12 5 7 12 6 9 5 22 16 11 10 11 13 13 13 12 9 7
14 14 14 14 14 14 14 14 14 14 13 14 14 14 13 13 13 12 11 12 11 12 11 12 12 10 9 9 8 7 7 3 9 8 6 7 7 8 11 11 14 16 15 16 16 15 12 12 14 13 12 12 13 14 15 14 11 12 15 15 15 16 15 12 10 11 8 7 7 10 12 8 10 12 8 10 4 19 19 16 15 13 13 13 13 12 11 10
14 14 14 15 15 15 14 14 14 14 14 14 14 14 14 13 13 12 12 12 11 11 11 12 11 9 9 9 9 8 3 3 6 5 6 10 9 11 13 12 16 17 15 15 16 15 12 11 12 12 12 12 13 13 14 14 9 11 16 16 17 17 16 13 10 11 11 10 11 11 11 11 11 11 6 8 10 12 15 16 19 16 13 14 12 11 11 12
15 14 14 15 15 15 15 15 15 14 14 14 14 14 14 14 13 12 12 12 11 11 11 11 9 8 10 10 9 7 2 1 3 6 8 12 14 14 14 13 16 17 15 14 14 15 14 14 12 9 8 9 12 14 14 14 13 14 17 14 13 16 17 17 14 11 11 11 13 12 13 13 12 12 9 10 15 10 10 11 18 17 14 14 12 11 10 10
15 15 15 15 15 15 15 15 15 15 15 15 15 14 15 14 14 13 13 12 11 10 9 10 6 6 11 9 11 15 11 8 5 4 8 13 14 13 13 14 16 16 15 13 13 14 15 15 13 10 8 8 10 11 10 13 14 15 16 12 11 15 15 19 15 12 12 11 12 12 12 13 12 14 13 13 15 10 11 12 15 18 15 13 11 10 9 9
15 15 15 15 15 15 16 16 15 15 15 15 15 15 15 16 16 14 13 12 10 9 9 8 6 8 10 7 14 25 21 14 9 6 8 12 13 13 12 14 15 14 15 14 12 11 12 13 13 12 11 10 8 8 7 9 11 13 14 11 11 12 12 17 16 14 14 10 11 11 8 10 12 15 15 14 16 12 13 12 11 16 16 13 12 10 8 8
16 16 15 16 16 16 16 16 16 16 16 16 16 16 17 18 18 16 13 12 10 7 6 6 6 8 8 9 19 24 17 13 11 9 11 12 13 13 13 13 13 13 14 14 13 9 10 13 12 10 11 11 10 11 10 7 9 11 12 10 9 9 9 14 15 16 15 11 13 12 7 8 12 16 16 15 13 10 11 12 11 13 15 13 12 12 9 9
16 16 16 16 16 16 16 16 17 17 17 17 17 17 17 17 18 15 13 11 9 6 5 5 7 7 7 12 19 18 13 14 14 13 13 14 15 14 14 13 12 13 12 12 12 10 9 11 10 8 9 12 12 13 10 7 8 8 9 9 9 9 10 14 15 18 17 13 16 14 8 8 12 15 17 17 13 11 11 11 11 11 14 13 11 12 10 9
16 16 16 16 16 16 17 17 17 17 18 18 17 16 16 16 16 13 10 8 7 5 4 6 10 10 7 7 6 7 13 16 16 15 15 16 16 13 13 13 12 13 12 11 11 10 9 8 8 8 10 11 11 10 8 7 8 8 9 8 10 11 10 12 15 19 20 15 17 17 10 7 11 15 16 19 17 16 15 13 12 11 14 13 10 10 9 9
16 16 16 16 17 17 17 17 17 18 19 19 18 16 14 15 13 10 7 4 4 4 7 9 9 8 8 10 8 6 13 16 16 16 17 17 16 15 13 12 10 12 11 11 11 10 9 8 7 8 9 9 9 9 8 8 7 7 9 8 11 14 11 11 13 16 21 17 16 17 13 10 12 15 15 20 21 17 15 14 14 11 13 12 10 9 7 7
17 17 17 17 17 17 17 18 18 19 20 19 17 15 15 14 10 7 5 2 2 6 11 11 9 6 7 11 12 11 11 14 13 14 17 17 17 17 12 9 9 10 10 9 10 10 8 7 7 7 8 9 10 9 9 10 10 9 9 8 10 13 14 13 13 14 20 19 16 15 14 14 16 16 16 16 21 18 14 14 13 12 16 13 11 10 7 7
17 17 17 18 18 18 18 18 19 19 21 20 16 14 14 10 5 7 8 7 5 5 6 6 8 6 5 7 12 12 4 7 9 11 16 17 16 15 11 9 10 10 10 7 9 11 8 6 8 8 8 10 11 12 11 13 15 14 12 10 10 11 13 14 14 14 17 19 15 14 14 14 17 18 12 3 14 14 13 12 11 11 16 14 13 12 11 12
18 18 18 18 18 19 19 19 19 19 20 20 18 13 9 5 3 4 7 10 10 10 11 8 12 12 12 10 11 10 4 6 7 10 14 16 14 13 10 10 10 10 10 9 9 10 9 7 8 9 10 12 14 15 15 16 18 18 13 11 13 11 11 14 16 14 15 15 14 15 15 15 15 17 12 9 12 9 11 10 9 9 11 13 16 15 13 13
18 19 19 19 19 20 19 19 19 19 19 18 15 10 6 7 6 4 3 8 13 17 19 17 15 16 17 16 14 9 7 8 10 11 13 15 14 12 9 11 11 9 10 12 9 8 9 9 10 12 14 15 15 15 14 16 17 16 13 13 13 12 11 14 16 14 13 11 10 14 14 14 13 14 15 12 14 12 11 10 9 11 10 12 16 14 9 7
19 19 19 20 20 20 20 20 20 19 18 15 10 9 9 11 9 9 10 10 13 17 19 20 20 19 18 20 19 13 8 10 12 12 14 15 13 11 10 11 12 9 11 13 9 7 9 10 12 15 14 14 15 14 14 15 15 13 10 11 11 9 10 12 15 15 12 8 7 13 13 13 13 14 15 13 12 13 12 13 10 11 12 10 14 10 6 5
20 20 21 20 20 22 20 21 21 20 19 14 11 12 14 15 13 13 11 8 13 17 16 18 19 18 18 18 17 15 12 10 11 12 16 16 13 12 11 11 12 11 11 12 10 8 8 10 15 16 14 13 14 14 14 12 11 10 9 9 9 8 9 9 10 13 9 6 4 9 9 9 11 13 14 13 12 11 13 14 11 12 11 10 16 12 10 11
20 20 20 20 21 21 20 23 23 19 15 13 16 17 16 15 13 13 10 7 11 14 16 18 16 16 16 16 15 15 13 11 11 12 18 16 12 12 11 11 12 12 11 14 15 12 10 12 14 15 15 17 14 10 8 7 7 9 11 11 9 10 12 8 5 6 5 7 3 7 7 7 10 14 12 10 13 11 14 14 13 14 9 13 17 13 11 11
20 20 20 20 21 21 22 22 17 12 9 11 18 19 14 11 9 9 8 6 8 10 14 15 12 12 14 15 14 13 12 11 13 12 17 18 14 11 10 9 9 11 13 16 15 12 13 11 10 15 18 18 12 7 7 7 7 8 12 15 15 15 16 11 8 9 4 5 8 7 7 7 9 14 12 9 13 11 11 12 14 15 10 15 14 11 10 9
20 19 20 20 20 22 19 11 9 13 13 11 11 9 6 5 7 8 6 5 6 7 7 7 7 7 9 12 12 10 11 11 13 14 16 19 17 11 9 8 7 10 13 13 11 7 9 11 11 14 13 11 9 8 12 12 8 8 11 15 19 19 19 17 9 8 5 4 7 9 8 7 7 12 11 10 13 11 11 13 14 14 11 13 9 7 6 7
20 19 19 19 18 19 12 7 13 17 12 6 5 7 6 7 8 7 5 4 6 6 7 5 4 5 6 9 11 10 8 8 11 16 15 19 16 13 11 9 7 10 11 8 7 5 8 13 12 9 5 5 7 9 12 13 9 8 10 14 18 20 19 19 13 8 6 5 6 8 9 8 6 10 13 14 15 13 15 15 13 13 9 13 12 7 3 7
20 19 19 19 18 14 10 13 16 14 12 10 10 9 8 9 8 6 4 4 3 2 6 4 3 4 5 9 13 12 9 7 10 13 16 19 16 12 12 13 10 11 12 9 6 7 9 11 9 8 8 7 9 10 12 14 11 10 14 14 13 15 17 16 12 7 6 5 6 8 10 8 6 9 12 14 15 14 16 14 13 14 8 14 14 10 9 10
21 19 19 20 19 12 11 14 12 12 15 14 11 10 10 10 8 4 4 4 3 1 2 3 4 5 8 9 13 15 13 8 8 11 16 18 16 12 10 13 13 13 13 11 8 6 8 9 9 9 9 8 10 13 13 14 11 11 15 15 13 13 14 12 8 5 5 5 6 9 10 7 6 8 8 9 11 13 13 12 13 11 8 12 12 11 12 10
22 21 20 20 16 10 7 14 15 12 12 11 11 11 10 8 5 4 5 3 3 3 4 4 5 8 11 11 12 15 15 11 6 10 14 14 15 14 10 10 12 12 11 11 10 9 8 10 10 9 8 9 12 13 14 15 13 12 13 13 13 11 11 9 7 6 6 6 8 12 10 6 6 7 7 8 9 9 8 9 12 9 12 11 7 7 10 11
25 24 21 17 13 9 8 9 9 8 6 8 11 10 7 5 4 6 6 3 5 6 6 7 8 10 12 13 11 12 16 13 8 12 12 10 13 13 10 9 9 8 8 8 10 11 12 10 7 7 9 11 13 11 12 15 14 11 9 7 8 7 7 7 7 7 6 6 9 13 13 10 7 5 3 2 4 9 10 8 10 11 13 10 7 5 7 8
26 24 20 17 14 13 12 8 7 8 7 8 10 7 5 5 6 6 6 4 4 4 6 6 9 10 12 14 11 11 14 12 10 12 12 10 10 11 11 9 7 7 8 7 8 10 12 10 8 8 10 13 12 9 8 8 10 9 7 6 6 6 6 6 7 7 6 7 9 12 12 9 6 2 3 6 6 4 7 7 6 8 12 10 8 8 5 6
25 22 19 16 14 15 16 12 10 9 8 8 7 5 5 6 7 7 8 7 3 1 1 2 6 8 10 11 10 11 13 12 11 12 12 13 10 11 14 14 11 9 7 7 8 8 8 9 12 11 10 12 12 8 6 6 7 9 8 7 6 6 5 6 6 6 6 8 9 8 5 3 4 4 6 9 10 11 6 10 6 4 9 10 9 8 4 5
22 20 17 11 10 13 11 9 9 7 7 7 5 5 7 8 7 8 10 10 9 8 5 4 5 7 9 10 10 11 11 11 13 13 12 13 10 10 13 15 16 12 7 7 7 7 8 8 11 12 8 11 13 12 9 6 8 10 9 8 7 6 6 5 5 5 4 6 8 8 4 2 4 5 8 8 9 9 10 10 7 5 7 8 8 9 6 6
20 15 11 7 11 12 10 9 8 6 6 6 5 6 9 7 7 8 9 10 11 12 12 12 9 8 9 9 10 12 11 9 13 14 11 11 10 9 10 12 16 14 8 6 5 7 10 8 9 13 11 12 15 14 12 9 7 8 8 8 6 5 5 3 3 3 1 4 5 5 2 1 4 4 5 6 8 10 9 8 8 8 7 5 7 10 9 7
17 8 5 8 13 12 10 10 7 5 6 5 6 8 8 7 7 8 7 9 10 11 13 14 11 9 8 7 9 12 12 10 12 11 9 12 13 12 12 10 13 16 11 7 4 5 8 8 8 14 14 14 15 13 13 10 5 3 7 9 8 8 6 3 2 2 1 3 3 2 1 3 5 4 4 7 8 9 9 7 8 10 10 7 5 8 8 6
14 7 7 10 9 7 6 8 7 6 6 5 7 8 7 9 11 11 10 12 13 12 10 9 9 9 9 8 8 11 11 9 10 8 6 9 10 11 14 13 13 17 15 10 6 4 5 6 6 9 13 14 13 12 14 13 8 5 5 5 6 9 7 3 2 2 3 5 4 5 5 4 4 4 7 10 9 8 9 10 11 11 9 8 6 5 6 7
12 9 9 8 3 4 3 7 8 8 5 5 9 9 9 10 12 13 13 14 15 13 9 7 8 9 9 8 8 10 10 6 7 7 4 4 5 5 8 11 13 17 17 13 7 4 6 5 6 11 13 12 11 11 11 13 13 9 3 0 3 6 5 4 3 3 5 5 4 7 9 4 1 2 7 11 10 9 11 13 13 10 6 6 6 7 9 10
10 8 5 2 3 1 3 6 8 7 5 7 8 8 9 12 14 16 16 15 14 12 10 8 9 10 9 10 9 9 9 5 4 5 3 3 4 5 7 5 6 12 17 16 8 3 4 4 4 10 12 10 9 8 7 7 11 10 5 3 4 4 3 2 2 3 5 4 4 8 8 3 4 5 2 8 11 10 9 11 12 8 5 5 6 6 7 7
7 6 1 2 2 1 2 6 7 6 6 8 8 7 9 11 13 16 16 16 13 9 8 8 9 10 10 12 12 8 7 7 5 3 3 3 2 4 7 6 5 8 8 11 12 7 2 2 2 6 9 8 7 7 8 7 7 7 6 6 6 3 2 4 3 3 5 4 3 5 2 3 4 6 6 10 12 9 7 10 10 6 5 6 6 5 4 3
6 5 1 2 2 4 4 5 6 5 6 8 9 10 11 11 11 13 15 16 13 8 7 9 11 11 10 12 11 8 6 6 7 4 0 0 2 1 6 10 9 5 7 7 10 7 3 3 3 4 5 6 6 6 9 10 9 8 6 7 8 5 4 5 4 3 5 4 2 1 1 3 3 5 5 10 10 5 6 10 10 7 7 5 1 1 2 2
6 3 2 4 2 5 5 4 4 5 6 7 9 11 11 9 11 14 13 11 9 8 8 10 12 12 10 11 9 8 9 6 6 5 3 3 5 5 4 12 11 2 5 7 5 1 0 3 4 6 4 6 10 8 7 10 13 12 8 6 7 6 6 6 4 3 4 3 2 2 3 2 2 4 4 11 11 6 5 8 11 10 10 11 10 8 5 3
4 1 4 5 2 5 5 5 5 5 6 8 11 14 14 10 8 11 10 8 7 8 8 8 11 13 10 9 8 8 10 7 4 5 3 5 8 4 3 11 9 4 2 6 6 1 1 2 4 4 3 7 11 13 12 11 8 9 7 5 5 5 6 6 4 3 1 2 2 2 3 2 1 4 3 11 13 9 6 6 10 11 8 10 12 11 9 7
4 3 3 4 1 3 4 4 4 5 6 9 10 12 14 12 9 9 9 9 7 7 8 8 10 14 11 9 10 11 10 7 3 4 4 3 2 3 4 9 7 2 2 1 3 2 1 2 2 3 2 3 5 7 8 7 8 5 6 7 9 8 5 4 4 3 2 4 5 1 2 3 1 0 5 12 12 10 9 7 9 10 8 8 9 8 9 9
6 3 1 3 2 2 3 2 5 6 7 8 9 9 11 10 8 9 10 10 8 7 8 7 10 13 10 9 12 13 11 8 7 3 3 2 0 2 3 3 6 6 3 2 2 1 1 1 1 4 5 5 2 2 3 2 6 6 9 11 12 12 7 3 2 4 4 3 3 1 2 5 5 5 9 12 10 9 9 8 8 9 9 9 8 8 8 9
4 2 2 2 2 3 2 3 6 7 6 7 7 7 9 8 6 7 9 8 7 7 6 7 10 11 9 9 11 12 11 10 10 7 2 5 3 3 6 6 6 6 1 4 2 2 1 0 0 3 2 2 2 1 3 4 6 7 12 16 15 11 8 5 4 4 3 1 1 2 6 8 8 9 10 11 8 6 6 6 6 8 9 9 9 9 9 9
4 2 4 4 2 3 4 5 7 6 5 6 6 6 10 11 5 3 8 7 4 6 6 7 9 9 7 8 8 9 11 11 12 12 6 4 5 1 6 8 11 11 7 3 4 2 1 3 2 2 2 4 6 4 4 4 6 10 13 14 16 15 11 6 6 5 3 2 1 5 11 11 9 9 10 11 10 7 6 6 7 9 10 9 10 11 12 12
3 2 4 2 3 4 5 6 7 6 8 7 4 6 11 12 4 1 5 6 3 3 4 5 9 10 11 10 8 8 9 10 10 7 3 4 4 2 4 6 8 9 9 8 8 4 4 6 4 4 6 6 5 6 5 3 1 6 9 10 12 15 15 12 8 5 2 2 3 8 13 12 10 11 11 10 10 9 8 8 9 10 10 10 11 12 13 13
4 2 4 2 2 4 4 6 8 6 9 9 4 5 10 10 6 4 3 5 6 6 4 4 8 10 10 9 6 4 4 5 5 6 8 7 2 2 1 2 2 3 6 8 5 3 4 5 5 6 7 8 7 6 6 7 7 7 5 6 7 10 11 10 11 11 5 10 11 12 15 13 9 11 12 11 10 9 9 7 8 9 9 10 12 12 12 13
5 3 4 4 3 4 3 5 7 6 7 8 6 7 9 9 9 9 7 7 5 6 7 7 8 9 10 9 8 8 7 7 7 7 7 7 3 1 1 2 2 5 8 6 1 3 3 1 3 5 4 6 7 5 6 7 8 9 9 9 6 6 7 5 6 9 6 10 13 11 12 10 8 9 11 11 9 9 10 9 8 7 7 9 11 11 11 12
7 3 3 5 3 4 2 3 5 4 5 6 5 7 8 9 12 10 7 6 8 8 10 11 10 8 9 9 9 10 10 9 8 8 8 7 4 2 1 4 5 3 4 1 4 4 4 0 1 4 4 4 5 6 5 5 5 8 9 10 10 6 3 5 6 4 2 6 11 10 6 6 7 9 10 10 10 10 11 11 9 7 7 10 12 12 12 12
9 5 5 6 3 4 4 4 5 5 4 4 4 7 8 9 11 9 6 6 9 10 11 12 11 6 4 8 12 11 11 10 9 8 7 7 7 5 3 4 5 1 3 3 4 3 5 2 1 3 4 3 5 7 6 4 4 5 4 5 9 7 5 4 5 7 4 5 6 5 6 8 9 9 10 11 11 11 11 10 9 8 10 13 15 15 15 14
Wind_Direction
354 352 350 348 346 344 339 332 325 317 310 306 304 305 305 305 303 303 304 304 306 308 310 312 311 312 311 311 309 308 314 306 298 283 253 251 248 238 246 246 249 253 229 217 218 207 200 209 220 220 224 230 226 236 235 228 225 232 228 239 249 247 251 248 254 265 272 270 90 50 16 298 278 174 171 234 244 261 168 121 92 87 100 127 151 144 145 144
353 351 350 348 347 345 342 337 329 322 315 310 305 306 306 304 304 302 302 303 304 306 309 310 310 312 310 310 311 312 313 300 288 276 259 254 248 243 248 244 246 246 213 207 215 208 201 205 212 215 218 227 221 223 233 224 217 230 232 233 240 246 252 248 257 272 340 0 34 53 358 251 280 0 110 208 235 232 198 152 100 89 86 105 129 135 144 142
351 350 349 347 345 343 342 340 336 331 324 317 311 308 307 304 303 301 301 303 303 304 306 307 310 311 310 311 312 317 311 297 283 268 264 257 237 235 240 239 240 232 205 203 212 208 209 209 208 212 215 225 225 217 223 219 214 223 235 240 238 243 255 260 270 296 19 19 354 19 164 233 259 308 221 228 254 232 203 160 99 94 105 118 130 140 145 140
351 349 347 345 343 341 341 340 340 337 332 324 317 311 307 305 303 301 301 302 303 304 305 308 310 309 313 313 312 320 309 293 282 241 255 220 206 223 233 236 234 217 203 207 219 216 216 218 211 213 217 225 228 222 224 222 217 214 226 242 245 245 249 255 274 304 291 299 296 325 45 250 250 243 252 226 258 264 222 154 123 126 151 147 139 147 145 134
350 348 346 344 343 341 340 340 340 339 336 330 322 315 310 306 303 302 300 301 303 304 307 309 310 313 312 311 315 316 301 288 91 108 114 144 178 210 223 227 224 208 202 212 229 229 223 224 218 215 220 231 231 226 225 224 225 222 229 238 248 255 255 260 296 316 286 286 257 276 279 283 348 256 271 232 214 260 275 143 132 145 160 157 147 145 137 132
349 348 345 343 342 340 340 339 338 338 337 333 326 318 311 308 304 302 301 302 303 303 307 308 311 314 312 313 313 297 277 289 17 125 133 138 160 191 204 210 211 201 203 215 232 237 225 222 223 218 220 231 236 235 228 222 224 232 240 239 245 254 262 278 305 318 311 328 268 260 266 293 334 267 259 249 196 127 165 153 130 149 150 146 140 131 133 155
349 347 344 343 341 339 339 337 337 336 334 333 329 322 313 309 303 300 299 300 301 302 305 307 311 312 318 323 301 262 241 274 289 153 141 143 146 167 185 193 197 194 204 215 226 235 224 220 223 223 223 229 239 242 239 231 224 232 243 242 246 251 255 267 282 325 58 265 262 262 262 276 291 265 255 260 189 105 112 164 145 138 137 136 124 115 129 181
349 347 343 342 340 338 338 336 336 333 332 331 328 325 317 310 305 298 295 295 296 299 303 305 310 314 325 328 302 257 247 256 215 148 150 155 150 159 168 180 189 191 205 216 226 234 225 222 224 227 229 230 238 243 245 242 228 231 241 245 251 253 252 251 253 255 221 237 250 257 265 265 259 263 264 257 166 108 123 166 148 132 138 134 123 126 142 198
348 345 342 341 339 338 337 335 334 331 330 328 326 325 318 312 307 301 296 296 296 297 301 303 307 317 321 311 292 282 274 206 137 150 172 164 167 168 166 177 187 192 207 220 232 236 226 224 227 232 239 240 241 243 246 246 233 230 240 244 248 253 258 257 245 243 240 241 242 240 251 253 254 264 265 264 196 129 151 166 151 151 150 135 132 143 157 189
345 343 341 339 338 337 336 334 332 329 328 325 324 322 318 315 305 301 299 296 298 296 297 300 306 317 306 284 272 275 287 122 142 171 178 169 167 169 179 186 184 194 210 221 231 233 227 227 230 235 246 252 252 250 247 249 250 242 244 242 241 251 259 261 247 241 247 243 241 239 242 241 241 252 239 251 246 174 167 166 156 161 152 141 143 145 161 182
342 341 339 338 338 336 334 332 331 328 326 324 322 320 319 316 306 300 298 293 293 290 292 295 304 309 292 279 269 264 276 312 188 170 170 170 166 173 193 195 185 198 215 223 229 230 231 233 235 237 237 244 254 259 257 257 261 253 253 250 243 251 254 251 238 227 241 236 231 235 245 240 229 240 226 234 245 194 172 179 157 156 151 144 145 144 163 179
341 341 338 337 336 334 333 330 329 326 324 322 319 318 318 316 310 300 294 293 291 288 291 291 300 299 284 277 255 248 253 272 266 211 183 175 179 185 200 201 192 204 220 228 229 226 235 241 246 255 246 238 245 257 265 263 261 255 259 261 250 252 250 248 238 221 231 230 221 222 240 242 226 234 225 231 244 182 174 209 168 151 147 147 153 149 160 169
342 340 337 336 334 333 331 328 327 324 322 320 317 315 315 315 312 301 292 290 287 288 288 282 287 282 278 274 251 250 254 256 249 226 196 189 198 200 208 211 203 213 227 238 242 229 237 249 256 262 260 259 256 259 271 270 263 255 254 256 253 254 248 244 236 223 229 231 218 211 228 237 227 233 225 229 237 191 179 214 184 152 147 153 157 143 146 163
340 339 337 335 333 331 329 327 325 323 320 318 315 316 315 315 311 300 288 283 283 289 288 279 275 270 261 258 264 265 264 257 239 221 213 204 206 207 211 216 216 225 231 242 254 248 238 245 253 263 264 266 270 265 263 262 255 248 242 240 246 251 251 243 229 217 222 227 217 211 226 233 227 225 218 229 231 185 181 207 195 165 154 155 152 145 154 169
339 338 336 333 332 330 327 326 323 321 320 317 317 320 318 316 311 297 283 277 278 276 284 285 251 248 266 262 270 273 256 247 238 224 218 208 210 212 206 213 224 229 232 240 250 258 249 240 241 250 255 253 260 266 264 257 246 239 236 236 235 239 250 247 231 215 214 220 212 210 232 232 236 229 208 218 218 180 193 213 207 180 154 150 148 146 158 167
338 336 334 333 331 329 326 324 323 321 319 319 321 322 319 319 313 299 289 280 277 261 251 261 227 220 265 281 286 258 223 226 230 224 219 211 213 215 203 208 223 225 231 236 237 247 248 241 236 238 246 242 242 249 254 252 239 224 228 237 239 238 240 245 241 218 206 213 209 208 230 227 237 244 214 207 207 190 198 218 218 187 148 143 139 140 157 157
336 335 333 332 329 327 326 323 323 320 319 323 326 323 319 319 311 301 306 296 282 242 225 253 251 225 250 284 300 256 219 218 223 218 213 210 213 219 208 202 216 219 223 227 227 233 230 228 234 233 239 239 233 233 237 241 234 222 222 230 241 244 241 237 246 223 197 205 213 202 218 238 236 244 236 216 200 188 196 214 219 181 135 134 133 136 151 143
335 333 331 329 328 326 324 322 322 320 320 324 326 323 315 312 304 288 288 272 236 230 232 251 274 260 241 256 263 259 233 210 207 209 204 203 212 222 212 197 213 213 213 220 217 220 220 214 224 228 227 228 232 228 225 232 236 230 220 224 233 243 248 237 245 230 190 195 217 202 202 234 243 248 264 232 186 177 192 206 218 179 137 138 143 141 154 158
332 331 329 327 326 324 323 322 321 321 321 324 329 326 311 302 285 252 237 219 196 218 246 215 199 235 291 264 242 253 261 165 181 205 198 193 208 221 212 202 215 211 211 214 199 205 210 207 219 228 223 218 224 228 229 233 238 238 230 232 227 231 245 238 248 240 189 184 210 212 205 218 237 246 262 208 154 177 197 197 222 190 145 147 150 146 164 169
331 329 328 325 323 323 322 321 321 321 320 325 332 324 295 279 273 229 214 214 216 235 270 250 202 232 278 280 243 225 171 144 191 214 199 189 202 217 209 205 215 210 216 218 196 197 206 212 217 221 226 223 222 229 239 241 243 252 261 262 244 234 243 235 242 238 190 184 203 213 219 212 226 241 228 161 149 199 221 203 223 205 159 153 152 155 166 166
329 327 326 324 322 320 321 321 319 318 318 321 322 304 275 300 326 340 296 253 237 234 251 258 241 245 258 264 263 236 183 182 210 219 203 191 199 213 199 201 214 206 215 223 208 194 205 221 224 221 227 232 228 224 237 251 254 262 276 282 257 231 238 237 238 229 189 184 202 205 221 220 216 232 232 200 170 191 223 223 224 217 192 160 148 151 151 153
328 328 325 323 321 320 322 321 316 313 312 307 290 266 265 289 318 334 318 292 273 256 250 252 250 252 252 254 264 263 228 200 207 215 199 185 198 210 186 192 216 209 209 221 211 195 210 225 231 229 228 235 241 226 221 244 258 262 263 276 273 236 231 240 238 229 195 176 211 203 209 228 222 223 232 228 197 181 199 218 221 224 216 163 133 124 121 162
327 327 325 323 321 320 322 320 315 309 298 276 250 250 261 277 304 320 309 288 286 279 262 248 242 243 242 242 244 241 238 223 217 210 186 182 204 213 195 192 215 218 207 214 211 201 213 222 226 232 233 230 242 240 222 225 240 255 255 256 273 257 234 236 234 229 191 143 238 228 214 227 231 229 223 229 227 183 179 210 217 226 225 143 127 138 159 180
327 327 324 324 321 320 324 320 312 299 277 248 242 253 261 278 302 315 309 284 281 279 262 247 240 237 232 230 224 218 227 229 235 213 176 182 209 212 211 204 212 224 214 211 212 213 226 227 217 222 231 222 226 248 245 236 230 239 250 248 261 266 252 238 182 185 155 126 206 258 258 236 227 234 215 215 238 196 174 200 210 226 215 125 130 153 165 176
327 325 323 324 321 322 326 319 309 296 269 238 246 257 257 269 302 323 315 282 269 269 252 237 229 232 222 215 210 208 216 219 237 225 172 184 214 207 212 215 213 225 219 213 214 219 233 237 218 217 226 218 210 227 229 236 248 237 237 241 255 267 264 251 173 166 196 177 179 204 251 248 228 237 219 204 232 201 173 201 212 221 183 126 135 151 156 171
325 324 322 323 322 327 330 318 314 318 300 263 260 281 284 287 328 333 303 270 274 266 232 196 189 203 202 201 194 195 219 218 230 228 176 182 215 217 215 216 211 228 225 216 215 225 238 242 233 225 224 207 204 229 222 220 240 246 228 225 243 258 266 270 240 191 211 222 193 190 226 247 230 238 230 218 227 197 187 211 217 219 180 126 111 111 146 179
324 321 322 320 320 331 331 305 317 316 298 302 343 340 332 329 338 324 284 263 273 237 185 161 164 177 183 188 175 180 221 204 206 225 189 177 206 225 227 219 204 227 238 228 214 213 237 245 239 227 217 197 216 232 221 216 224 246 240 216 224 241 253 266 262 219 198 220 226 207 219 242 234 227 221 220 223 207 208 212 207 220 184 118 105 102 198 210
321 320 320 316 316 316 289 287 307 294 282 329 348 319 319 334 326 300 265 266 292 196 170 158 121 161 191 177 174 198 232 193 183 214 191 176 196 215 227 234 227 223 227 237 229 199 216 235 226 216 220 215 226 233 221 216 219 239 251 237 221 229 241 255 259 239 214 220 234 217 214 231 243 233 218 215 219 216 215 207 201 215 175 120 129 151 196 206
322 321 317 315 317 308 266 260 274 278 288 309 321 313 317 319 303 268 244 262 298 324 189 170 138 182 200 178 184 212 233 221 191 191 178 177 199 216 227 238 245 240 222 228 247 225 211 213 206 214 225 224 227 231 226 219 221 237 249 259 255 231 228 245 254 242 229 227 234 226 216 223 246 238 217 211 219 220 213 200 203 204 140 120 138 161 183 189
324 321 318 316 315 316 278 244 253 281 294 296 311 316 306 292 269 235 230 228 259 243 162 154 186 194 195 193 199 211 222 231 205 173 173 178 197 217 236 235 243 255 233 220 237 247 234 211 208 217 217 229 232 227 229 223 220 233 236 252 264 234 211 232 244 232 231 231 236 235 222 221 251 245 220 211 206 205 208 205 200 165 112 118 139 162 177 175
325 322 321 309 290 299 298 250 262 299 292 301 318 307 282 258 233 232 228 228 280 250 178 172 200 192 194 204 206 204 214 225 198 173 179 185 191 205 229 230 227 247 242 223 225 236 239 216 202 229 225 230 235 232 237 223 209 224 231 239 263 237 205 221 223 220 231 230 234 235 217 206 235 256 245 207 185 205 217 216 194 147 118 129 145 145 158 167
323 321 315 296 273 265 259 262 321 327 305 317 315 282 240 227 227 233 236 247 280 239 190 209 216 197 198 210 212 204 209 217 199 186 188 189 194 199 211 219 204 215 230 225 211 218 236 227 201 221 231 233 237 237 241 220 202 222 226 218 245 236 208 218 215 211 232 233 230 234 226 214 225 260 63 71 48 293 219 163 149 133 123 136 148 142 145 164
322 318 306 290 273 254 247 268 304 308 304 306 291 255 225 231 228 226 236 244 271 349 98 269 242 213 205 214 220 209 210 215 201 197 199 196 200 202 209 218 209 207 224 223 214 206 218 232 219 214 217 225 237 240 221 203 206 226 226 212 224 228 216 223 222 216 232 235 224 226 243 233 183 123 96 97 65 24 51 112 125 147 136 140 143 134 155 181
321 311 296 278 259 255 252 264 277 288 301 282 255 229 225 235 238 234 238 239 254 269 261 258 259 245 233 229 228 213 212 222 207 199 203 200 206 206 204 218 217 215 230 226 225 219 214 225 219 213 204 198 218 238 235 214 202 214 230 230 220 220 221 225 231 229 241 245 223 204 203 215 171 113 89 101 97 64 56 79 87 103 134 146 143 139 171 195
318 302 285 254 235 240 240 242 254 275 282 251 229 225 223 228 234 238 245 244 253 264 261 255 248 247 248 238 233 223 212 220 212 205 209 205 211 215 202 211 217 216 224 220 218 226 228 230 207 207 210 193 201 228 245 243 221 204 218 230 227 222 215 214 235 230 267 282 242 206 196 125 129 110 100 122 122 104 85 83 85 78 89 129 155 158 171 179
313 287 234 227 225 217 217 226 231 243 255 240 225 227 225 231 238 240 252 255 255 262 265 260 242 233 243 238 238 232 214 215 213 204 220 221 215 216 209 206 213 217 219 214 212 219 231 244 208 196 206 204 200 214 229 236 240 216 216 220 220 219 208 201 225 178 143 273 242 164 71 104 137 157 155 149 137 121 119 125 103 69 57 62 112 153 157 147
311 281 231 237 220 178 202 225 213 221 244 240 231 236 236 238 244 251 264 272 273 275 276 276 263 245 238 231 237 231 211 210 216 207 224 234 224 221 218 209 204 216 224 225 226 220 231 266 256 214 210 206 202 211 219 222 225 227 230 230 229 222 204 183 226 208 201 236 221 171 166 168 186 192 157 148 146 139 127 104 83 72 65 61 75 116 115 99
301 288 267 256 188 130 248 238 214 219 234 237 239 248 254 251 253 256 263 273 281 282 275 274 280 265 245 237 237 231 217 203 212 219 227 245 251 272 256 225 206 210 219 226 236 230 218 238 279 264 235 201 197 219 222 218 223 231 231 169 248 239 213 190 213 233 220 229 240 207 191 176 271 213 170 165 152 131 114 95 84 84 89 78 71 77 80 82
278 275 271 239 150 114 276 221 206 220 227 234 238 240 248 257 263 267 274 279 276 272 262 260 273 268 259 259 250 232 224 218 217 227 245 258 258 302 312 288 231 221 216 217 220 236 241 226 248 259 236 194 187 219 229 217 221 233 237 215 231 248 254 237 226 236 229 222 241 226 198 125 23 0 112 141 123 111 113 104 98 96 87 70 62 60 65 78
270 266 223 125 166 123 167 192 202 220 223 232 243 246 250 253 256 261 268 272 272 273 271 275 274 265 264 270 267 251 232 228 232 241 258 273 301 316 302 299 280 266 258 235 216 200 221 236 241 251 229 208 200 202 218 229 224 225 228 230 232 216 209 230 238 257 248 235 250 245 199 82 23 6 53 92 89 90 110 104 99 98 74 52 39 36 31 43
288 279 139 117 166 144 159 196 208 226 235 239 244 249 256 263 268 267 260 257 262 266 260 268 274 272 279 280 270 265 263 238 225 235 171 225 347 345 266 283 287 297 335 288 227 199 183 179 216 256 231 231 243 209 209 229 235 228 218 224 230 219 214 225 234 253 246 246 282 297 114 77 18 359 64 88 82 93 132 122 124 135 122 112 102 355 336 347
280 285 96 111 171 189 211 243 241 242 247 251 260 262 260 259 265 272 272 272 284 286 266 263 267 270 284 292 282 274 285 274 226 221 128 169 229 208 246 301 301 308 15 317 266 242 51 170 206 241 247 268 285 298 280 257 245 236 231 233 233 229 234 236 241 239 225 253 313 117 140 111 13 338 67 105 114 130 135 118 121 129 133 140 148 159 182 171
262 299 111 120 173 217 239 278 279 270 269 269 277 281 279 276 270 274 278 282 292 290 280 273 269 263 257 271 286 276 277 285 236 211 185 205 220 188 10 330 296 200 82 329 304 317 168 175 201 230 292 300 295 303 298 292 279 249 245 259 254 244 239 236 247 259 236 267 270 150 131 116 25 329 63 106 115 117 105 96 103 103 97 102 115 132 144 133
309 318 132 125 132 254 268 302 299 293 292 285 287 295 299 301 296 290 287 281 275 268 265 266 270 269 258 251 262 261 264 280 259 199 190 235 227 124 37 354 336 310 111 176 280 333 286 259 222 221 234 246 277 290 279 312 354 329 293 283 257 245 250 250 240 249 263 257 255 251 113 126 117 328 102 101 98 96 94 91 94 97 95 95 102 109 105 100
307 289 192 120 68 306 294 329 315 303 306 309 308 304 300 295 282 278 281 284 289 284 273 275 286 290 286 272 262 257 258 268 266 231 149 147 81 198 212 56 24 332 331 117 135 103 296 318 317 257 239 205 222 258 234 336 3 334 327 324 285 255 258 299 271 243 254 262 282 342 126 134 125 120 104 95 94 97 97 97 100 105 111 111 105 91 83 86
302 299 332 23 46 341 327 9 344 325 331 333 317 293 282 278 280 291 288 277 276 287 286 282 291 298 300 292 280 266 259 253 256 263 205 147 134 232 224 157 165 233 292 52 47 126 158 213 39 298 289 143 172 160 86 28 360 346 352 354 335 300 272 266 261 251 252 266 14 94 137 135 126 121 106 97 107 117 110 113 118 112 107 104 96 88 87 89
300 356 7 354 352 348 351 9 357 346 357 344 318 316 306 289 279 322 312 296 265 277 282 272 278 283 284 289 282 272 273 264 254 255 240 156 113 196 236 202 201 203 162 161 247 237 233 226 194 268 251 153 157 143 87 31 360 354 354 357 353 347 336 299 254 237 237 249 242 152 144 134 126 121 110 105 112 121 126 129 128 117 111 110 104 99 97 91
324 33 47 8 325 358 1 357 357 3 14 5 335 344 335 318 320 24 307 310 324 298 284 282 282 270 263 272 268 262 274 272 265 277 339 55 98 134 255 236 206 179 168 209 233 223 248 244 195 211 241 217 181 162 149 157 285 332 339 347 1 12 7 347 322 306 267 145 136 141 130 118 119 120 111 105 104 104 106 108 111 114 118 120 113 106 102 94
3 29 41 332 315 29 28 1 2 12 16 9 0 6 353 339 353 19 4 11 3 340 338 316 296 284 283 301 316 318 311 302 309 347 12 18 63 114 327 275 200 194 216 228 231 220 253 252 207 208 235 237 217 193 189 203 217 230 263 312 352 26 26 13 1 356 40 113 120 125 114 103 112 117 107 103 105 106 105 102 106 114 118 116 108 103 101 96
5 18 2 313 321 43 55 21 14 22 23 11 5 11 356 348 0 3 16 44 23 348 359 346 324 325 332 349 24 31 11 1 359 350 346 355 19 59 65 150 180 280 255 230 269 302 275 240 221 223 231 234 220 206 212 217 216 215 221 247 284 350 16 46 44 0 13 100 103 102 100 100 113 112 102 102 104 106 107 101 94 99 105 106 102 100 100 97
348 3 338 305 331 9 8 39 27 21 35 23 4 5 351 351 7 0 349 22 26 11 4 355 351 349 339 356 24 20 356 345 342 334 329 338 335 301 268 185 188 247 269 290 27 333 280 215 179 230 231 231 213 206 212 212 220 228 227 237 247 257 354 48 81 55 25 108 103 94 97 111 119 114 109 108 105 104 104 98 86 79 88 92 87 82 82 83
350 352 328 298 321 7 354 29 26 12 39 39 5 14 358 343 359 2 338 353 10 7 359 355 360 1 351 8 9 351 336 327 318 314 310 306 296 287 288 267 255 197 103 86 55 3 292 284 192 219 230 236 223 214 211 213 232 234 239 281 266 218 156 93 83 93 118 152 136 125 136 136 135 136 128 117 110 103 95 86 76 68 72 75 71 65 63 62